Irish Sea — WDB5555 — position and weather

sailwx.info

Track history (hours):
 
Tides and Currents Weather Stations Pressure Air Temp Water Temp Dewpoint Dewpoint Depression Visibility Wind Speed Wind Dir Waves Ship Positions

Irish Sea

Owner: Kirby Offshore Marine, LLC, Staten Island, NY. More information available from US FCC via Universal Licensing System and Coast Guard Vessel Documentation Center.

Last reported at 2014-Oct-31 10:33 UTC. Time now 2014-Oct-31 10:39 UTC.
Position N 40°57' W 071°48'.

Length 152 m; draft 6.8 m.

Type: Ship (hazmat cat B). MMSI: 366910920.

Date/timePositionNaut miles runAvg speedWind from/ knotsBaromVisibWave heightAir tempDewpointWater temp
2014-Oct-31 10:33N 40°57' W 071°48'1010.3
2014-Oct-31 09:33N 41°04' W 071°37'1010.0
2014-Oct-31 08:33N 41°10' W 071°27'10 9.9
2014-Oct-31 07:33N 41°20' W 071°25'10 9.6
2014-Oct-31 06:33N 41°29' W 071°21'9 9.4
2014-Oct-31 05:33N 41°38' W 071°18'9 9.0
2014-Oct-31 04:33N 41°47' W 071°22'2 2.5
2014-Oct-31 03:33N 41°49' W 071°24'0 0.0
2014-Oct-30 11:31N 41°49' W 071°24'2 1.6
2014-Oct-30 10:33N 41°47' W 071°23'7 7.0
2014-Oct-30 09:33N 41°41' W 071°19'7 7.1
2014-Oct-30 08:33N 41°34' W 071°19'7 6.7
2014-Oct-30 07:33N 41°28' W 071°22'7 7.4
2014-Oct-30 06:33N 41°21' W 071°21'7 7.4
2014-Oct-30 05:33N 41°13' W 071°22'7 7.2
2014-Oct-30 04:33N 41°07' W 071°26'7 7.4
2014-Oct-30 03:33N 41°02' W 071°33'8 7.5
2014-Oct-30 02:33N 40°57' W 071°41'7 7.2
2014-Oct-30 01:33N 40°52' W 071°48'7 7.4
2014-Oct-30 00:33N 40°48' W 071°56'8 7.6
2014-Oct-29 23:33N 40°43' W 072°04'8 7.6
2014-Oct-29 22:33N 40°38' W 072°12'8 7.8
2014-Oct-29 21:33N 40°34' W 072°20'8 7.8
2014-Oct-29 20:33N 40°29' W 072°28'8 7.9
2014-Oct-29 19:33N 40°24' W 072°36'10 7.9
2014-Oct-29 18:20N 40°18' W 072°46'8 8.0
2014-Oct-29 17:22N 40°13' W 072°53'7 8.0
2014-Oct-29 16:28N 40°09' W 073°01'118 7.7
2014-Oct-29 01:14N 38°49' W 074°54'43 7.4
2014-Oct-28 19:27N 39°22' W 075°28'6 6.4
2014-Oct-28 18:33N 39°27' W 075°33'5 5.4
2014-Oct-28 17:33N 39°32' W 075°33'4 3.6
2014-Oct-28 16:33N 39°35' W 075°35'0 0.0
2014-Oct-28 15:33N 39°35' W 075°35'0 0.0
2014-Oct-28 14:33N 39°35' W 075°35'0 0.0
2014-Oct-28 13:32N 39°35' W 075°35'0 0.0
2014-Oct-28 12:32N 39°35' W 075°35'0 0.0
2014-Oct-28 11:29N 39°35' W 075°35'0 0.0
2014-Oct-28 10:32N 39°35' W 075°35'0 0.0
2014-Oct-28 09:32N 39°35' W 075°35'0 0.0
2014-Oct-28 08:32N 39°35' W 075°35'0 0.0
2014-Oct-28 07:32N 39°35' W 075°35'0 0.0
2014-Oct-28 06:32N 39°35' W 075°35'0 0.0
2014-Oct-28 05:32N 39°35' W 075°35'0 0.0
2014-Oct-28 04:32N 39°35' W 075°35'0 0.0
2014-Oct-28 03:32N 39°35' W 075°35'0 0.0
2014-Oct-28 02:32N 39°35' W 075°35'0 0.0
2014-Oct-28 01:32N 39°35' W 075°36'0 0.0
2014-Oct-28 00:32N 39°35' W 075°36'0 0.0
2014-Oct-27 23:32N 39°35' W 075°35'0 0.0
2014-Oct-27 22:32N 39°35' W 075°36'0 0.0
2014-Oct-27 21:32N 39°35' W 075°35'2 1.6
2014-Oct-27 20:33N 39°34' W 075°34'2 1.7
2014-Oct-27 19:32N 39°33' W 075°33'0 0.0
2014-Oct-27 18:32N 39°33' W 075°33'0 0.0
2014-Oct-27 17:32N 39°33' W 075°33'0 0.0
2014-Oct-27 16:32N 39°33' W 075°33'0 0.0
2014-Oct-27 15:32N 39°33' W 075°33'0 0.0
2014-Oct-27 14:32N 39°33' W 075°33'0 0.2
2014-Oct-27 13:32N 39°33' W 075°33'0 0.0
2014-Oct-27 12:32N 39°33' W 075°33'0 0.0
2014-Oct-27 11:32N 39°33' W 075°33'0 0.0
2014-Oct-27 10:32N 39°33' W 075°33'0 0.0
2014-Oct-27 09:31N 39°33' W 075°33'0 0.0
2014-Oct-27 08:31N 39°33' W 075°33'0 0.1
2014-Oct-27 07:31N 39°33' W 075°33'0 0.5
2014-Oct-27 06:31N 39°33' W 075°33'0 0.0
2014-Oct-27 05:31N 39°33' W 075°33'0 0.0
2014-Oct-27 04:28N 39°33' W 075°33'0 0.0
2014-Oct-27 03:31N 39°33' W 075°33'0 0.0
2014-Oct-27 02:31N 39°33' W 075°33'0 0.2
2014-Oct-27 01:31N 39°33' W 075°33'3 3.0
2014-Oct-27 00:33N 39°30' W 075°33'65 5.0
2014-Oct-26 11:33N 39°30' W 074°09'9 9.3
2014-Oct-26 10:33N 39°38' W 074°03'9 9.2
2014-Oct-26 09:33N 39°47' W 073°58'46 9.0
2014-Oct-26 04:29N 40°32' W 074°01'9 9.3
2014-Oct-26 03:33N 40°41' W 074°02'30 7.5
2014-Oct-25 23:31N 40°58' W 073°30'9 9.4
2014-Oct-25 22:33N 41°03' W 073°19'9 8.4
2014-Oct-25 21:29N 41°09' W 073°11'1 0.5
2014-Oct-25 19:06N 41°10' W 073°10'0 0.0
2014-Oct-25 18:33N 41°10' W 073°10'0 0.0
2014-Oct-25 17:33N 41°10' W 073°10'0 0.0
2014-Oct-25 14:27N 41°10' W 073°10'0 0.0
2014-Oct-25 13:27N 41°10' W 073°10'0 0.0
2014-Oct-25 12:29N 41°10' W 073°10'0 0.0
2014-Oct-25 11:32N 41°10' W 073°10'0 0.0
2014-Oct-25 10:29N 41°10' W 073°10'0 0.0
2014-Oct-25 09:32N 41°10' W 073°10'0 0.0
2014-Oct-25 08:17N 41°10' W 073°10'0 0.0
2014-Oct-25 07:32N 41°10' W 073°10'0 0.0
2014-Oct-25 06:29N 41°10' W 073°10'14 1.2
2014-Oct-24 18:33N 41°00' W 073°24'29 7.0
2014-Oct-24 14:24N 40°46' W 073°57'5 6.1
2014-Oct-24 13:33N 40°41' W 074°01'6 5.8
2014-Oct-24 12:33N 40°35' W 074°02'55 6.9
2014-Oct-24 04:33N 39°40' W 074°02'7 6.7
2014-Oct-24 03:33N 39°34' W 074°06'62 2.4
2014-Oct-23 01:08N 39°19' W 075°24'5 0.7
2014-Oct-22 17:33N 39°23' W 075°29'7 7.5
2014-Oct-22 16:34N 39°30' W 075°34'6 5.6
2014-Oct-22 15:34N 39°35' W 075°35'0 0.3
2014-Oct-22 14:34N 39°35' W 075°36'0 0.2
2014-Oct-22 13:33N 39°35' W 075°35'0 0.2
2014-Oct-22 12:31N 39°35' W 075°36'0 0.0
2014-Oct-22 11:31N 39°35' W 075°36'0 0.0
2014-Oct-22 10:31N 39°35' W 075°36'0 0.0
2014-Oct-22 09:31N 39°35' W 075°36'0 0.0
2014-Oct-22 08:25N 39°35' W 075°36'0 0.0
2014-Oct-22 07:31N 39°35' W 075°36'0 0.0
2014-Oct-22 06:31N 39°35' W 075°36'0 0.0
2014-Oct-22 05:31N 39°35' W 075°36'0 0.0
2014-Oct-22 04:28N 39°35' W 075°36'0 0.0
2014-Oct-22 03:31N 39°35' W 075°36'0 0.0
2014-Oct-22 02:31N 39°35' W 075°36'0 0.0
2014-Oct-22 01:31N 39°35' W 075°36'0 0.0
2014-Oct-22 00:31N 39°35' W 075°36'0 0.0
2014-Oct-21 23:31N 39°35' W 075°36'0 0.0
2014-Oct-21 22:31N 39°35' W 075°36'0 0.0
2014-Oct-21 21:31N 39°35' W 075°36'0 0.0
2014-Oct-21 20:31N 39°35' W 075°36'0 0.2
2014-Oct-21 19:33N 39°35' W 075°35'3 2.8
2014-Oct-21 18:32N 39°33' W 075°33'0 0.0
2014-Oct-21 17:32N 39°33' W 075°33'0 0.1
2014-Oct-21 16:32N 39°33' W 075°33'0 0.2
2014-Oct-21 15:32N 39°33' W 075°33'0 0.0
2014-Oct-21 14:32N 39°33' W 075°33'0 0.0
2014-Oct-21 13:32N 39°33' W 075°33'0 0.0
2014-Oct-21 12:32N 39°33' W 075°33'0 0.0
2014-Oct-21 11:32N 39°33' W 075°33'  
Track history (hours):
 
Tides and Currents Weather Stations Pressure Air Temp Water Temp Dewpoint Dewpoint Depression Visibility Wind Speed Wind Dir Waves Ship Positions

Irish Sea

Owner: Kirby Offshore Marine, LLC, Staten Island, NY. More information available from US FCC via Universal Licensing System and Coast Guard Vessel Documentation Center.

Last reported at 2014-Oct-31 10:33 UTC. Time now 2014-Oct-31 10:39 UTC.
Position N 40°57' W 071°48'.

Length 152 m; draft 6.8 m.

Type: Ship (hazmat cat B). MMSI: 366910920.

Date/timePositionNaut miles runAvg speedWind from/ knotsBaromVisibWave heightAir tempDewpointWater temp
2014-Oct-31 10:33N 40°57' W 071°48'1010.3
2014-Oct-31 09:33N 41°04' W 071°37'1010.0
2014-Oct-31 08:33N 41°10' W 071°27'10 9.9
2014-Oct-31 07:33N 41°20' W 071°25'10 9.6
2014-Oct-31 06:33N 41°29' W 071°21'9 9.4
2014-Oct-31 05:33N 41°38' W 071°18'9 9.0
2014-Oct-31 04:33N 41°47' W 071°22'2 2.5
2014-Oct-31 03:33N 41°49' W 071°24'0 0.0
2014-Oct-30 11:31N 41°49' W 071°24'2 1.6
2014-Oct-30 10:33N 41°47' W 071°23'7 7.0
2014-Oct-30 09:33N 41°41' W 071°19'7 7.1
2014-Oct-30 08:33N 41°34' W 071°19'7 6.7
2014-Oct-30 07:33N 41°28' W 071°22'7 7.4
2014-Oct-30 06:33N 41°21' W 071°21'7 7.4
2014-Oct-30 05:33N 41°13' W 071°22'7 7.2
2014-Oct-30 04:33N 41°07' W 071°26'7 7.4
2014-Oct-30 03:33N 41°02' W 071°33'8 7.5
2014-Oct-30 02:33N 40°57' W 071°41'7 7.2
2014-Oct-30 01:33N 40°52' W 071°48'7 7.4
2014-Oct-30 00:33N 40°48' W 071°56'8 7.6
2014-Oct-29 23:33N 40°43' W 072°04'8 7.6
2014-Oct-29 22:33N 40°38' W 072°12'8 7.8
2014-Oct-29 21:33N 40°34' W 072°20'8 7.8
2014-Oct-29 20:33N 40°29' W 072°28'8 7.9
2014-Oct-29 19:33N 40°24' W 072°36'10 7.9
2014-Oct-29 18:20N 40°18' W 072°46'8 8.0
2014-Oct-29 17:22N 40°13' W 072°53'7 8.0
2014-Oct-29 16:28N 40°09' W 073°01'118 7.7
2014-Oct-29 01:14N 38°49' W 074°54'43 7.4
2014-Oct-28 19:27N 39°22' W 075°28'6 6.4
2014-Oct-28 18:33N 39°27' W 075°33'5 5.4
2014-Oct-28 17:33N 39°32' W 075°33'4 3.6
2014-Oct-28 16:33N 39°35' W 075°35'0 0.0
2014-Oct-28 15:33N 39°35' W 075°35'0 0.0
2014-Oct-28 14:33N 39°35' W 075°35'0 0.0
2014-Oct-28 13:32N 39°35' W 075°35'0 0.0
2014-Oct-28 12:32N 39°35' W 075°35'0 0.0
2014-Oct-28 11:29N 39°35' W 075°35'0 0.0
2014-Oct-28 10:32N 39°35' W 075°35'0 0.0
2014-Oct-28 09:32N 39°35' W 075°35'0 0.0
2014-Oct-28 08:32N 39°35' W 075°35'0 0.0
2014-Oct-28 07:32N 39°35' W 075°35'0 0.0
2014-Oct-28 06:32N 39°35' W 075°35'0 0.0
2014-Oct-28 05:32N 39°35' W 075°35'0 0.0
2014-Oct-28 04:32N 39°35' W 075°35'0 0.0
2014-Oct-28 03:32N 39°35' W 075°35'0 0.0
2014-Oct-28 02:32N 39°35' W 075°35'0 0.0
2014-Oct-28 01:32N 39°35' W 075°36'0 0.0
2014-Oct-28 00:32N 39°35' W 075°36'0 0.0
2014-Oct-27 23:32N 39°35' W 075°35'0 0.0
2014-Oct-27 22:32N 39°35' W 075°36'0 0.0
2014-Oct-27 21:32N 39°35' W 075°35'2 1.6
2014-Oct-27 20:33N 39°34' W 075°34'2 1.7
2014-Oct-27 19:32N 39°33' W 075°33'0 0.0
2014-Oct-27 18:32N 39°33' W 075°33'0 0.0
2014-Oct-27 17:32N 39°33' W 075°33'0 0.0
2014-Oct-27 16:32N 39°33' W 075°33'0 0.0
2014-Oct-27 15:32N 39°33' W 075°33'0 0.0
2014-Oct-27 14:32N 39°33' W 075°33'0 0.2
2014-Oct-27 13:32N 39°33' W 075°33'0 0.0
2014-Oct-27 12:32N 39°33' W 075°33'0 0.0
2014-Oct-27 11:32N 39°33' W 075°33'0 0.0
2014-Oct-27 10:32N 39°33' W 075°33'0 0.0
2014-Oct-27 09:31N 39°33' W 075°33'0 0.0
2014-Oct-27 08:31N 39°33' W 075°33'0 0.1
2014-Oct-27 07:31N 39°33' W 075°33'0 0.5
2014-Oct-27 06:31N 39°33' W 075°33'0 0.0
2014-Oct-27 05:31N 39°33' W 075°33'0 0.0
2014-Oct-27 04:28N 39°33' W 075°33'0 0.0
2014-Oct-27 03:31N 39°33' W 075°33'0 0.0
2014-Oct-27 02:31N 39°33' W 075°33'0 0.2
2014-Oct-27 01:31N 39°33' W 075°33'3 3.0
2014-Oct-27 00:33N 39°30' W 075°33'65 5.0
2014-Oct-26 11:33N 39°30' W 074°09'9 9.3
2014-Oct-26 10:33N 39°38' W 074°03'9 9.2
2014-Oct-26 09:33N 39°47' W 073°58'46 9.0
2014-Oct-26 04:29N 40°32' W 074°01'9 9.3
2014-Oct-26 03:33N 40°41' W 074°02'30 7.5
2014-Oct-25 23:31N 40°58' W 073°30'9 9.4
2014-Oct-25 22:33N 41°03' W 073°19'9 8.4
2014-Oct-25 21:29N 41°09' W 073°11'1 0.5
2014-Oct-25 19:06N 41°10' W 073°10'0 0.0
2014-Oct-25 18:33N 41°10' W 073°10'0 0.0
2014-Oct-25 17:33N 41°10' W 073°10'0 0.0
2014-Oct-25 14:27N 41°10' W 073°10'0 0.0
2014-Oct-25 13:27N 41°10' W 073°10'0 0.0
2014-Oct-25 12:29N 41°10' W 073°10'0 0.0
2014-Oct-25 11:32N 41°10' W 073°10'0 0.0
2014-Oct-25 10:29N 41°10' W 073°10'0 0.0
2014-Oct-25 09:32N 41°10' W 073°10'0 0.0
2014-Oct-25 08:17N 41°10' W 073°10'0 0.0
2014-Oct-25 07:32N 41°10' W 073°10'0 0.0
2014-Oct-25 06:29N 41°10' W 073°10'14 1.2
2014-Oct-24 18:33N 41°00' W 073°24'29 7.0
2014-Oct-24 14:24N 40°46' W 073°57'5 6.1
2014-Oct-24 13:33N 40°41' W 074°01'6 5.8
2014-Oct-24 12:33N 40°35' W 074°02'55 6.9
2014-Oct-24 04:33N 39°40' W 074°02'7 6.7
2014-Oct-24 03:33N 39°34' W 074°06'62 2.4
2014-Oct-23 01:08N 39°19' W 075°24'5 0.7
2014-Oct-22 17:33N 39°23' W 075°29'7 7.5
2014-Oct-22 16:34N 39°30' W 075°34'6 5.6
2014-Oct-22 15:34N 39°35' W 075°35'0 0.3
2014-Oct-22 14:34N 39°35' W 075°36'0 0.2
2014-Oct-22 13:33N 39°35' W 075°35'0 0.2
2014-Oct-22 12:31N 39°35' W 075°36'0 0.0
2014-Oct-22 11:31N 39°35' W 075°36'0 0.0
2014-Oct-22 10:31N 39°35' W 075°36'0 0.0
2014-Oct-22 09:31N 39°35' W 075°36'0 0.0
2014-Oct-22 08:25N 39°35' W 075°36'0 0.0
2014-Oct-22 07:31N 39°35' W 075°36'0 0.0
2014-Oct-22 06:31N 39°35' W 075°36'0 0.0
2014-Oct-22 05:31N 39°35' W 075°36'0 0.0
2014-Oct-22 04:28N 39°35' W 075°36'0 0.0
2014-Oct-22 03:31N 39°35' W 075°36'0 0.0
2014-Oct-22 02:31N 39°35' W 075°36'0 0.0
2014-Oct-22 01:31N 39°35' W 075°36'0 0.0
2014-Oct-22 00:31N 39°35' W 075°36'0 0.0
2014-Oct-21 23:31N 39°35' W 075°36'0 0.0
2014-Oct-21 22:31N 39°35' W 075°36'0 0.0
2014-Oct-21 21:31N 39°35' W 075°36'0 0.0
2014-Oct-21 20:31N 39°35' W 075°36'0 0.2
2014-Oct-21 19:33N 39°35' W 075°35'3 2.8
2014-Oct-21 18:32N 39°33' W 075°33'0 0.0
2014-Oct-21 17:32N 39°33' W 075°33'0 0.1
2014-Oct-21 16:32N 39°33' W 075°33'0 0.2
2014-Oct-21 15:32N 39°33' W 075°33'0 0.0
2014-Oct-21 14:32N 39°33' W 075°33'0 0.0
2014-Oct-21 13:32N 39°33' W 075°33'0 0.0
2014-Oct-21 12:32N 39°33' W 075°33'0 0.0
2014-Oct-21 11:32N 39°33' W 075°33'  

Dump ship's entire track history